Погода в Архиповке

Украина / Черниговская область     52°14′05″N   32°49′26″E
темп.,
°C
ветер,
м/с
пор.,
м/с
влажн.,
%
обл.,
%
осадки,
мм/ч
давл.,
гПа
погр.,
м
4 марта, чт
чт423:00−1з59890 0.0 1019245
02:00−1зюз59870 0.0 1017252
05:00−4юз511900 0.0 1014248
08:00−2юз713931 0.0 1011356
11:000зюз61010022 0.0 1009442
14:00+2юз51010053 0.0 1006471
17:00+2зюз412100100 0.0 1005388
20:00+1зсз41196100 0.1 1005470
5 марта, пт
пт523:00−1сз4992100 0.0 1006325
02:00−2зсз499596 0.0 1008307
05:00−4ссз239276 0.0 101041
08:00−3ссз359164 0.0 1011208
11:00−1ссз348268 0.0 1013488
14:00−1сз347884 0.0 1013743
17:00−2сз2383100 0.0 101480
20:00−3зсз2283100 0.0 101634
6 марта, сб
сб623:00−4сз3687100 0.0 1017196
02:00−5сз5118297 0.0 1019433
05:00−7сз49840 0.0 1019362
08:00−6сз510790 0.0 1020534
11:00−3сз586634 0.0 1021971
14:00−2сз576122 0.0 10211342
17:00−4сз37730 0.0 1021303
20:00−5зсз35810 0.0 1022122
7 марта, вс
вс723:00−5зюз48810 0.0 1022221
02:00−5зюз512780 0.0 1020373
05:00−5юз7157151 0.0 1017588
08:00−3юз10177075 0.0 1013937
11:00−1зюз111875100 0.0 10091278
14:00+1зюз101777100 0.1 10081339
17:00−1зсз51094100 1.4 1008679
20:00−2ю2896100 4.6 1007576
8 марта, пн
пн823:00−1зюз101890100 0.5 10051146
02:00−3зсз7147597 0.9 1005770
05:00−5зсз7157944 0.0 1007808
08:00−5зсз7118241 0.0 10091048
11:00−4сз687592 0.1 10111065
14:00−3сз467395 0.1 10121092
17:00−4сз2383100 0.1 1012159
20:00−6сз118696 0.1 101456